GFSMW_850_temp_069.txt.gz
Temp
19 16 13 11 9 11 10 10 10 10 10 9 9 9 9 9 8 8 10 10 10 9 11 12 12 11 10 10 11 11 11 11 11 11 11 10 10 10 10 10 10 9 10
19 16 13 11 9 10 11 10 10 10 10 10 9 9 9 9 9 9 9 10 10 10 12 11 11 12 11 10 10 10 10 10 10 11 11 11 10 10 11 10 10 10 9
19 17 14 12 10 9 10 10 10 10 10 10 9 9 9 8 8 9 9 10 9 10 11 11 12 11 11 10 10 10 10 11 11 11 11 11 12 12 11 11 11 10 10
19 18 15 13 11 9 10 10 10 10 9 9 9 9 9 9 9 10 10 10 10 12 12 11 11 11 10 10 10 11 11 11 10 11 11 12 11 12 12 11 11 10 9
20 18 16 15 13 10 10 10 10 10 10 9 9 9 10 9 9 9 10 9 9 10 11 11 11 11 10 11 11 11 11 11 10 11 11 10 11 11 11 12 11 10 9
21 19 17 16 14 12 9 10 10 10 10 10 9 10 10 9 9 9 9 9 10 10 10 11 11 11 10 11 11 10 10 10 11 10 10 11 11 11 11 11 11 10 10
21 19 18 16 15 13 11 10 9 9 10 10 10 9 9 9 10 9 9 9 10 10 11 10 10 10 10 9 10 11 11 10 11 10 10 10 10 10 10 10 10 10 10
21 20 19 17 16 14 12 11 10 9 9 9 10 10 9 9 10 9 9 9 11 11 11 11 10 10 10 11 10 11 10 11 11 11 10 10 10 10 10 10 11 11 9
22 20 19 18 16 15 13 12 11 11 9 9 9 10 9 9 9 9 9 9 11 11 11 11 11 11 11 10 10 10 10 11 11 11 10 10 10 10 10 10 10 10 8
22 21 20 18 17 15 14 12 12 12 12 9 9 9 9 9 9 9 9 9 10 11 11 11 11 11 10 10 10 10 10 10 10 10 10 10 10 10 10 10 10 9 9
22 21 20 19 17 16 14 13 12 13 13 11 10 9 9 9 9 9 9 9 9 10 11 11 11 11 10 10 10 11 10 10 10 10 10 10 10 10 9 9 9 8 8
22 21 20 19 17 16 15 14 13 13 13 12 11 10 10 10 10 10 10 10 10 9 10 10 10 10 10 10 10 10 10 10 10 10 10 10 10 10 10 9 10 8 8
22 22 20 20 18 17 16 15 14 13 13 13 12 11 11 10 10 10 10 10 10 10 10 10 10 10 10 10 10 10 10 10 10 10 10 9 10 10 10 9 8 8 8
22 22 21 20 19 18 17 16 15 14 13 13 13 12 11 11 11 10 10 10 10 10 10 10 10 10 10 10 10 10 10 10 10 9 9 9 10 10 11 10 9 9 8
22 22 22 21 20 19 18 17 16 15 13 13 13 13 12 12 11 11 10 10 10 10 10 10 10 10 10 10 10 10 10 10 10 9 9 9 10 11 11 10 10 9 9
22 21 21 21 22 21 19 18 17 16 14 13 13 13 12 12 11 11 10 10 10 10 10 11 10 10 10 10 10 10 10 9 9 9 9 9 10 10 10 10 9 9 8
18 18 19 20 20 20 21 19 18 17 15 14 14 13 13 12 12 11 11 11 11 10 10 10 10 10 10 11 11 10 9 9 9 9 10 9 9 9 9 9 8 7 6
15 16 17 18 18 18 18 18 19 18 16 15 14 14 13 13 12 11 11 11 10 10 10 10 10 9 10 9 9 9 9 8 8 8 8 9 9 9 8 8 7 5 4
14 13 14 14 15 15 15 16 17 19 18 16 15 15 14 13 13 12 12 11 10 10 10 10 9 9 9 9 9 9 8 8 8 8 8 8 8 8 8 7 6 4 1
13 12 12 12 10 10 13 13 14 15 16 18 17 16 15 14 13 13 12 11 11 10 10 10 9 9 9 9 9 9 9 9 9 8 8 7 7 6 5 3 3 2 1
13 12 11 9 8 10 11 11 12 13 14 14 15 15 15 14 14 13 12 11 10 10 10 9 9 9 9 9 9 9 9 8 7 7 6 4 3 2 1 0 -0 -1 -1
12 11 10 8 7 8 8 9 10 10 11 11 12 13 13 13 12 12 12 11 10 10 10 9 9 9 8 9 8 8 7 6 4 4 2 1 -0 -1 -1 -1 -2 -3 -3
9 8 8 6 8 7 7 7 7 8 8 8 9 10 10 10 10 10 10 9 9 9 9 8 8 7 6 7 5 3 2 2 1 0 -1 -2 -2 -2 -2 -3 -3 -3 -4
5 4 5 3 7 7 6 6 5 6 7 7 7 7 8 8 8 9 8 9 8 7 7 6 6 4 3 3 2 1 1 0 -0 -1 -2 -3 -3 -3 -3 -4 -5 -6 -6
1 0 -0 -0 3 4 5 6 6 5 5 5 5 4 4 5 5 5 4 5 4 5 5 4 3 1 0 -1 -0 -1 -2 -2 -2 -3 -4 -4 -5 -5 -6 -7 -7 -8 -8
-3 -2 -2 -3 -0 2 2 3 4 4 5 5 5 4 1 0 0 1 1 1 1 1 0 -0 -0 -2 -4 -4 -4 -4 -4 -5 -5 -5 -6 -6 -7 -8 -9 -10 -11 -11 -12

GFSMW_850_temp_072.txt.gz
Temp
21 19 16 13 12 11 11 10 11 10 10 10 10 9 10 9 9 10 9 9 9 9 11 11 12 12 12 12 12 12 12 12 12 12 11 11 11 10 10 10 11 10 11
21 18 15 13 11 10 10 11 11 11 10 10 10 9 10 9 9 9 9 9 9 10 10 11 11 11 11 11 11 11 11 11 11 12 11 10 10 10 10 10 10 11 11
21 18 15 13 11 10 10 10 10 11 10 10 10 9 9 9 9 9 9 9 10 10 10 11 11 11 12 11 11 11 11 11 11 11 11 10 10 11 11 10 10 10 10
21 19 16 14 12 10 10 11 11 11 10 9 9 10 9 9 9 9 9 9 10 11 11 10 11 12 12 12 12 12 11 11 11 11 11 11 12 11 10 10 10 10 10
21 20 17 15 13 11 11 10 10 11 10 9 9 9 9 9 9 9 9 10 10 10 10 10 11 12 12 12 12 12 11 11 10 11 10 11 11 11 11 11 11 11 10
22 20 18 16 14 12 10 10 10 10 10 9 9 10 10 9 9 9 9 9 9 10 10 10 10 12 12 12 12 11 10 11 10 11 10 11 11 11 11 11 12 11 11
22 21 18 17 15 13 12 9 10 10 10 10 9 9 9 9 9 10 10 10 9 9 10 10 11 11 11 12 11 11 10 11 11 11 11 10 11 11 11 11 11 11 11
23 21 19 17 16 14 12 11 10 9 9 9 9 9 9 10 9 10 10 10 10 10 10 10 11 11 11 11 10 11 10 11 11 11 11 10 10 11 11 11 10 10 10
23 21 20 18 16 15 13 12 10 10 9 9 9 10 9 9 9 9 10 9 9 11 11 11 11 11 11 11 11 11 11 11 11 10 11 11 10 11 11 11 10 10 9
23 22 20 18 17 16 14 12 12 11 10 9 9 9 9 9 9 9 9 9 9 10 11 10 11 11 11 11 11 11 11 11 10 10 10 10 10 10 11 11 10 10 10
23 22 21 19 18 16 15 13 12 12 12 11 10 9 9 10 9 10 10 9 9 9 9 10 11 11 11 11 11 11 11 10 10 10 10 10 11 11 10 10 10 10 10
23 22 21 20 18 17 16 14 13 13 12 12 12 10 10 10 9 9 10 10 10 10 10 10 11 11 11 11 11 11 11 11 11 10 10 10 10 10 10 10 10 10 10
23 22 21 20 19 18 16 15 14 13 13 13 12 11 11 11 10 10 10 10 10 10 10 10 10 11 11 11 11 11 11 11 10 10 10 10 10 10 9 9 10 10 10
22 23 22 21 20 19 17 16 15 14 13 13 13 12 12 13 12 11 10 10 10 9 10 10 10 10 11 11 11 11 11 10 10 10 10 10 10 10 10 10 10 10 9
21 22 21 21 21 20 19 17 16 15 14 13 13 13 12 12 11 11 11 10 10 10 10 10 10 10 10 10 10 10 10 10 10 10 10 10 10 10 10 9 9 9 8
17 19 19 19 20 21 20 19 18 17 15 15 14 13 13 12 12 11 11 11 10 10 10 10 10 10 10 10 10 10 10 10 10 10 10 10 10 10 9 10 9 8 8
15 15 16 17 17 18 18 18 19 18 17 16 15 14 13 13 12 12 11 11 11 11 11 11 10 10 10 10 10 10 10 10 10 10 10 10 9 9 9 9 9 8 8
14 13 13 14 14 15 16 17 17 17 18 17 16 14 14 13 13 12 12 11 11 11 10 10 10 10 10 10 10 10 10 10 10 9 9 9 9 9 9 9 8 8 7
14 12 12 11 12 13 14 14 14 15 16 17 17 16 15 14 13 13 13 12 11 11 10 10 10 10 10 9 10 10 9 9 9 9 9 8 8 8 8 8 8 6 5
13 12 10 10 11 12 11 11 12 13 14 15 16 15 16 15 15 14 13 13 12 11 11 10 10 10 9 9 9 9 9 9 9 9 9 8 8 8 8 7 5 3 2
11 10 9 7 9 10 10 10 10 11 10 11 13 14 14 14 14 14 14 13 13 12 11 11 10 10 10 9 9 9 9 9 9 9 8 8 7 6 5 3 2 0 -1
8 8 7 4 4 6 7 7 8 7 7 8 9 11 11 13 13 13 13 13 13 13 11 11 10 10 10 9 9 9 9 9 8 7 6 4 2 1 -0 -1 -2 -2 -3
4 3 3 2 3 3 4 5 6 6 7 7 7 8 8 8 9 9 10 10 11 10 11 10 9 9 8 7 7 7 5 6 4 2 1 1 -1 -2 -3 -3 -3 -3 -4
1 -0 -1 -1 1 2 3 3 4 4 5 6 6 6 5 6 6 7 6 6 8 8 7 6 6 6 4 2 -2 -2 0 -0 -0 -2 -3 -4 -4 -4 -4 -5 -5 -5 -6
-3 -3 -2 -2 -1 1 1 1 1 2 3 4 5 6 5 5 3 2 1 -1 -1 2 3 1 -0 -2 -2 -4 -2 -1 -2 -3 -5 -5 -5 -5 -6 -5 -6 -6 -6 -7 -7
-3 -3 -3 -2 -2 -1 -0 1 1 1 1 1 2 2 2 3 2 2 1 -1 -6 -5 -3 -2 -2 -4 -6 -5 -6 -5 -5 -5 -5 -5 -6 -7 -7 -8 -8 -9 -9 -10 -10

GFSMW_850_temp_075.txt.gz
Temp
20 19 18 16 15 12 10 10 11 10 11 11 10 10 10 10 11 11 11 11 10 10 11 11 11 11 12 12 11 12 12 11 11 11 11 11 11 11 10 10 10 10 10
20 18 17 16 15 13 10 9 10 10 10 10 10 10 10 10 10 10 11 10 10 10 11 11 11 11 11 11 11 12 12 12 12 11 11 11 10 10 10 10 10 10 10
20 18 17 16 15 13 10 10 10 10 10 9 9 10 9 10 9 10 10 9 9 10 10 10 11 11 10 10 11 12 12 12 12 12 12 10 10 10 10 10 10 10 10
20 18 17 16 15 14 10 10 10 10 10 11 9 9 9 9 9 10 10 9 10 10 10 11 10 10 10 10 11 12 12 12 12 11 11 11 11 11 10 10 10 10 10
20 19 18 17 16 14 10 10 9 10 10 10 10 9 9 9 9 9 9 9 10 10 10 10 11 11 11 12 12 12 12 12 12 12 11 11 11 11 11 11 12 11 11
20 19 18 16 16 14 10 10 10 10 10 9 10 10 10 9 9 9 9 9 9 9 10 10 11 11 11 12 12 12 11 11 11 11 11 11 11 12 11 11 11 11 12
19 18 17 16 15 14 12 10 10 10 10 9 9 10 10 10 10 9 9 9 9 9 10 10 10 11 11 11 11 12 11 11 11 11 10 11 11 12 11 10 11 10 11
20 19 18 17 16 15 13 10 10 10 9 9 9 9 10 10 10 10 10 10 10 10 10 10 10 11 11 11 11 12 11 12 11 11 9 10 11 11 12 11 10 10 10
20 19 18 18 17 16 14 14 11 10 10 9 9 9 9 10 10 10 10 10 10 10 10 11 11 10 11 10 11 11 11 11 11 11 9 10 11 11 11 11 11 10 9
20 19 18 18 17 17 15 14 13 12 10 9 9 9 9 9 9 10 11 10 10 10 10 10 10 10 10 10 10 11 11 10 11 11 10 11 11 11 11 11 10 10 10
20 20 19 18 18 17 16 15 13 12 12 10 9 9 9 9 9 9 10 10 10 10 11 11 10 10 10 11 11 10 11 11 11 11 11 12 11 11 11 10 10 10 10
21 20 20 18 18 17 16 16 15 13 12 12 11 10 9 9 9 9 9 9 10 10 10 10 11 11 11 11 11 11 11 11 11 11 11 12 11 11 11 10 10 10 10
22 21 20 19 18 17 17 16 15 14 13 12 12 11 11 10 9 9 9 9 9 9 10 10 10 11 11 11 11 11 11 11 11 11 11 11 11 11 10 10 10 10 10
18 19 19 19 19 18 18 17 16 16 15 13 12 12 12 12 11 9 10 9 9 9 9 10 10 10 11 10 11 11 11 11 11 11 11 11 10 10 10 10 10 10 10
15 15 16 16 16 17 17 18 18 17 16 15 14 13 13 12 12 12 10 10 9 9 10 10 10 10 10 10 11 11 11 11 11 11 11 11 11 11 11 10 10 10 10
14 13 14 14 15 15 15 15 15 16 16 16 15 15 14 13 12 12 12 11 11 10 9 9 9 9 10 10 10 10 10 10 10 11 11 11 11 10 10 10 10 10 10
13 13 13 12 13 14 13 14 14 14 14 15 16 15 15 14 13 13 12 12 11 11 11 10 9 9 9 10 10 10 9 9 10 10 10 10 10 10 10 10 10 9 9
12 12 12 13 12 12 13 14 14 14 15 13 12 12 13 14 14 13 13 12 12 12 11 11 10 10 10 10 10 9 9 10 10 10 10 10 10 10 10 10 9 9 9
10 10 11 11 12 13 12 10 12 13 13 12 11 11 12 12 13 13 13 14 12 12 12 11 11 10 11 10 10 10 9 10 10 10 10 10 10 10 9 9 9 9 9
7 9 10 9 10 10 10 10 10 10 11 12 12 11 11 11 11 12 12 12 12 12 12 11 11 10 10 10 10 10 10 10 10 9 9 9 9 9 9 9 8 8 7
4 6 8 7 7 6 7 8 8 8 7 7 7 8 10 10 10 10 12 12 11 11 12 11 10 10 10 10 10 10 10 10 9 9 9 9 9 8 8 8 6 4 1
4 4 4 4 3 4 5 5 6 6 6 7 7 7 8 8 8 9 10 11 10 10 10 10 10 10 9 9 9 9 9 9 9 8 6 4 5 2 1 0 -0 -2 -2
2 1 1 1 2 2 3 3 3 4 5 5 6 6 6 7 8 7 7 9 9 8 7 6 5 4 5 6 5 6 6 8 6 1 -1 -1 -2 -3 -2 -3 -4 -4 -4
-1 -1 -0 0 0 1 1 1 1 1 2 4 4 5 5 5 6 7 7 6 6 5 4 2 1 -1 -2 -3 -2 -2 -1 -1 -1 -2 -4 -4 -5 -5 -5 -5 -5 -5 -5
-1 -2 -2 -2 -2 -1 0 1 1 1 1 1 1 1 1 1 2 2 1 1 1 0 2 1 -1 -3 -4 -5 -5 -4 -4 -4 -5 -5 -5 -5 -5 -6 -6 -6 -7 -7 -7
-4 -3 -3 -4 -5 -4 -3 -2 -1 -1 -0 -0 -0 -1 -1 -2 -2 -2 -3 -4 -5 -5 -4 -3 -2 -4 -5 -4 -5 -6 -6 -5 -5 -5 -6 -7 -8 -8 -8 -8 -9 -9 -9

GFSMW_850_temp_081.txt.gz
Temp
22 20 19 18 16 16 15 15 14 14 13 12 11 11 11 11 11 11 11 11 11 12 12 12 12 13 13 12 12 11 11 11 11 11 10 10 10 10 10 10 11 11 11
19 19 18 17 16 16 15 14 14 13 12 13 10 10 10 11 11 11 11 11 11 11 12 12 13 13 12 12 12 11 11 11 11 11 10 9 9 10 10 10 10 10 10
19 18 17 17 16 15 15 15 14 12 12 13 10 10 10 10 11 11 11 11 11 11 11 11 12 12 12 12 12 11 12 12 11 10 11 9 10 10 10 10 10 10 10
17 18 18 17 16 15 15 14 13 12 12 12 10 10 10 10 10 11 11 11 10 10 10 10 11 12 12 12 12 12 11 12 11 10 10 11 11 10 10 10 11 11 11
19 18 19 19 17 15 15 15 13 12 11 11 11 10 10 10 11 10 10 10 10 10 10 9 10 11 11 11 11 11 11 11 11 11 11 11 11 11 12 12 12 11 11
17 16 15 16 16 15 15 14 12 11 11 11 11 10 9 10 10 10 10 10 10 9 9 9 9 10 11 11 11 11 11 11 11 11 11 11 11 11 12 12 12 11 11
17 15 15 14 16 16 15 14 12 11 9 10 11 10 10 9 9 10 10 10 10 10 10 9 9 9 10 11 10 10 11 11 11 11 11 11 11 11 11 12 12 11 11
18 17 16 16 17 17 15 14 13 11 9 9 10 10 10 10 10 10 10 10 10 10 10 9 9 9 10 10 10 10 10 10 10 10 11 11 11 11 11 11 11 11 11
16 15 15 15 17 17 16 15 13 12 9 9 9 10 10 10 10 10 10 9 9 9 10 9 9 10 10 10 10 10 10 9 10 10 10 11 11 11 11 11 11 11 10
13 13 13 17 17 17 16 15 13 13 12 9 10 10 10 10 10 10 10 9 9 9 9 9 9 9 10 10 10 10 10 9 10 10 10 11 11 11 11 11 11 11 10
14 14 14 15 16 16 16 14 13 13 12 9 9 9 10 10 10 10 10 10 10 9 9 10 9 9 9 9 9 10 10 10 10 10 10 11 11 11 11 10 10 11 10
14 14 14 15 16 16 15 14 13 13 13 11 9 9 9 10 10 10 10 10 10 10 10 10 10 10 10 10 10 10 10 10 10 10 11 11 11 11 11 11 11 10 11
14 12 11 12 13 13 13 12 12 11 11 10 10 9 9 9 9 10 10 10 10 10 10 10 10 10 10 10 10 10 10 10 11 11 11 11 11 10 10 11 10 11 10
11 12 11 11 11 11 12 12 13 12 12 11 11 10 9 9 9 9 9 9 9 10 10 10 10 10 10 10 9 9 9 9 10 10 11 11 11 11 10 10 10 10 10
7 8 9 9 10 10 11 11 11 12 12 12 11 11 11 10 10 9 9 9 9 9 9 9 9 9 9 9 9 9 9 9 9 10 10 10 10 10 10 10 10 10 9
5 5 7 8 9 10 10 10 11 12 12 11 11 11 11 11 11 10 10 10 9 9 9 9 9 9 8 8 8 9 9 9 9 9 10 9 9 10 9 9 9 9 7
3 3 5 5 7 8 8 10 10 11 11 9 9 9 9 9 10 10 10 10 9 10 10 10 9 9 9 8 8 9 9 9 9 9 9 9 9 9 9 9 9 8 8
1 3 3 4 6 6 8 9 9 9 9 9 9 9 9 9 9 9 9 10 10 10 10 9 9 9 10 9 9 9 9 9 9 9 9 9 9 9 9 9 9 10 10
1 2 3 4 5 7 7 8 8 8 8 8 8 9 9 9 9 9 9 9 9 9 9 9 9 9 9 9 9 9 9 9 9 9 9 8 8 8 8 9 9 9 8
1 2 3 3 3 3 4 6 6 7 7 7 8 8 8 8 8 8 8 9 9 9 9 9 9 9 9 9 10 9 9 9 9 9 8 9 9 9 9 8 8 7 7
1 1 2 3 3 3 3 5 5 5 4 5 6 7 7 7 7 6 6 7 7 8 8 8 8 8 7 7 8 8 8 8 8 7 7 7 7 8 8 8 7 5 4
-0 0 1 1 1 1 1 1 2 1 3 4 5 5 6 6 6 6 5 5 5 6 6 5 5 4 4 5 5 5 5 5 5 5 4 3 4 2 3 4 4 1 -0
-2 -2 -1 -1 -0 0 1 1 1 1 1 1 2 2 3 3 4 4 5 5 3 3 3 2 2 1 0 0 1 1 1 2 1 -0 -1 -2 -1 -1 -1 -3 -4 -3 -3
-2 -2 -2 -1 -1 -1 -0 -0 0 -0 0 1 1 0 1 1 1 2 3 2 2 1 -1 -1 -1 -2 -2 -2 -2 -2 -3 -2 -3 -4 -4 -3 -4 -4 -5 -4 -4 -4 -5
-4 -3 -3 -3 -3 -3 -2 -2 -2 -3 -2 -2 -2 -1 -1 -0 0 0 -0 -1 -3 -2 -2 -3 -3 -4 -5 -5 -4 -4 -4 -4 -4 -4 -5 -5 -5 -6 -6 -6 -7 -7 -7
-6 -5 -5 -4 -5 -4 -4 -3 -3 -3 -3 -3 -3 -3 -4 -4 -4 -5 -5 -6 -5 -5 -5 -5 -5 -6 -7 -6 -5 -5 -5 -5 -6 -5 -5 -6 -6 -6 -7 -7 -8 -8 -8

GFSMW_850_temp_084.txt.gz
Temp
21 20 20 20 19 17 17 16 14 14 13 12 11 11 11 11 11 11 11 10 10 10 10 11 12 11 12 11 10 10 10 10 11 11 10 10 10 10 10 10 10 10 10
19 20 20 19 18 17 17 15 15 14 14 12 12 10 10 11 11 11 10 10 10 10 10 11 11 11 12 10 10 10 10 10 11 10 10 9 8 9 10 10 10 10 10
19 18 19 19 17 17 16 15 15 14 13 12 11 10 10 10 10 10 11 11 10 10 11 11 11 11 12 11 11 11 10 10 10 11 11 9 9 9 9 10 10 10 10
19 18 17 17 17 17 16 15 14 13 13 12 11 9 10 10 10 11 11 11 10 10 11 11 11 12 11 11 11 11 10 11 11 10 11 11 11 10 10 10 10 10 11
20 18 18 16 16 16 15 15 14 13 13 12 11 9 10 10 10 11 10 10 10 11 11 11 11 11 11 11 11 11 11 11 11 11 10 11 11 11 11 11 11 10 12
19 16 16 15 14 13 14 14 13 13 13 12 10 10 9 10 10 10 10 10 10 11 10 10 10 9 10 11 11 12 11 11 11 12 11 11 11 11 11 11 12 12 12
19 18 18 15 15 14 14 14 13 13 13 12 10 10 9 9 10 10 10 10 11 10 9 9 9 9 8 10 11 11 11 11 11 11 11 11 11 11 11 11 12 12 12
18 20 20 16 14 13 14 14 14 13 13 12 11 9 10 9 10 10 10 10 10 11 10 10 9 9 8 8 10 10 11 11 11 11 10 11 11 11 11 11 11 11 11
17 19 18 14 13 14 15 15 15 14 13 11 11 10 9 9 9 9 9 10 10 10 10 10 9 9 9 8 8 10 10 10 10 10 10 10 10 10 11 11 11 11 10
16 16 15 14 12 13 16 15 14 15 12 10 9 9 10 9 9 9 10 10 9 10 10 10 10 9 9 8 9 9 9 10 10 9 10 10 10 10 10 10 10 10 9
14 13 12 12 12 13 15 14 13 14 12 10 9 9 9 9 9 10 9 9 9 9 9 9 9 9 9 9 9 9 10 10 10 9 9 9 9 9 9 9 9 10 9
11 11 10 9 10 12 13 13 13 13 12 10 9 8 9 9 9 9 9 9 9 9 9 9 9 9 9 9 9 10 10 10 10 10 10 10 10 10 10 10 10 10 10
10 10 10 9 10 11 12 13 13 12 11 10 9 9 8 9 9 9 9 9 9 9 9 9 9 9 9 9 9 10 10 10 10 9 10 10 10 10 10 11 11 11 11
9 9 9 10 10 11 11 12 13 12 12 11 10 10 9 9 8 8 9 9 10 10 9 9 9 9 9 9 9 9 9 9 9 9 9 9 10 10 10 10 10 10 10
6 7 8 9 9 9 10 10 11 11 11 11 11 11 10 10 10 9 9 9 9 9 9 9 9 9 9 9 9 9 9 9 9 9 9 9 9 10 10 9 10 10 9
3 4 5 7 8 9 9 9 10 11 11 10 10 10 10 10 10 9 9 9 9 9 9 9 9 9 9 9 9 9 8 9 9 9 9 9 9 9 9 10 10 9 8
1 1 2 3 5 7 8 9 9 10 10 9 9 9 9 9 9 9 9 9 9 10 9 9 9 9 9 9 9 8 8 8 8 8 8 8 8 9 9 9 9 9 9
-1 -1 0 1 3 4 7 8 7 8 9 9 8 9 9 9 9 9 9 9 9 9 9 9 9 9 9 9 9 9 9 9 9 9 9 9 9 9 8 9 9 9 9
-1 -0 0 0 2 4 5 6 7 7 7 8 7 8 8 8 8 9 9 9 9 9 9 9 8 9 8 9 9 9 9 9 9 8 8 8 8 8 8 8 8 7 7
-0 1 1 1 1 1 3 5 5 6 6 6 6 6 7 7 7 8 7 8 8 8 8 8 8 8 8 8 9 9 8 8 8 8 8 8 7 7 7 7 7 6 5
-1 0 1 1 0 0 2 3 3 4 4 5 5 6 6 6 6 5 6 6 6 7 7 6 6 6 6 6 6 6 6 7 7 6 6 5 5 5 6 5 5 4 3
-2 -1 -0 0 -0 0 0 1 1 0 1 2 4 4 4 5 5 5 4 4 5 5 5 5 4 4 4 3 3 3 4 4 4 3 2 1 1 1 1 2 2 2 -2
-4 -2 -1 -1 -1 -1 -1 -0 -1 -0 0 0 0 1 2 2 3 3 3 3 2 2 2 2 1 1 0 1 1 1 1 0 1 -1 -2 -2 -3 -3 -2 -3 -4 -3 -4
-4 -4 -3 -2 -2 -2 -2 -1 -1 -1 -1 -0 -0 0 1 1 1 1 1 1 -0 -1 -2 -2 -2 -2 -3 -3 -3 -2 -2 -3 -3 -4 -4 -4 -4 -4 -5 -5 -5 -5 -5
-5 -5 -5 -5 -5 -4 -3 -4 -3 -3 -2 -2 -2 -2 -2 -2 -2 -2 -3 -4 -5 -4 -4 -5 -5 -5 -4 -5 -5 -4 -4 -4 -5 -5 -5 -5 -5 -6 -6 -6 -7 -7 -7
-7 -6 -6 -6 -6 -5 -4 -4 -4 -4 -3 -3 -3 -3 -4 -4 -4 -4 -5 -6 -6 -5 -6 -7 -6 -6 -6 -6 -6 -6 -6 -6 -6 -5 -5 -5 -6 -6 -7 -7 -7 -8 -8